Regional Weather Roundup
Issued by NWS

Home | Current Version | Previous Version | Graphics & Text | Print | Product List | Glossary On
Versions: 1 2 3 4 5 6 7 8 9 10 11 12 13 14 15 16 17 18 19 20 21 22 23 24 25 26 27
000
ASUS45 KTFX 250110
RWRMT
MONTANA REGIONAL WEATHER ROUNDUP
NATIONAL WEATHER SERVICE GREAT FALLS MT
700 PM MDT MON JUL 24 2017

NOTE: "FAIR" INDICATES FEW OR NO CLOUDS BELOW 12000 FEET WITH NO
SIGNIFICANT WEATHER AND/OR OBSTRUCTIONS TO VISIBILITY.

MTZ001>007-043-250200-
WEST OF THE DIVIDE

CITY           SKY/WX    TMP DP  RH WIND       PRES   REMARKS
KALISPELL      MOSUNNY   88  27  11 VRB6      29.85R
MISSOULA       SUNNY     87  25  10 NW14G22   29.87S
BUTTE          CLOUDY    83  32  16 NW12      30.02R
MULLAN PASS    SUNNY     71  32  23 MISG      30.11S
ANACONDA         N/A     86  32  14 SW14      29.97S
DEER LODGE       N/A     82  37  20 NW12G17   29.96S
EUREKA           N/A     82  30  15 MISG      29.87S
HAMILTON         N/A     88  39  18 SW3       29.90S
LIBBY            N/A     86  27  11 W3        29.87R
PLAINS           N/A     88  41  19 SW5       29.88S
$$

MTZ008-052>055-250200-
SOUTHWEST MONTANA

CITY           SKY/WX    TMP DP  RH WIND       PRES   REMARKS
BOZEMAN        CLOUDY    86  40  19 SW13      29.92R THUNDER
DILLON         CLOUDY    78  40  25 S18G25    30.01F
ENNIS          MOSUNNY   79  39  24 S21       30.09R
THREE FORKS      N/A     88  41  19 W5        29.91R
TWIN BRIDGES     N/A     77  43  29 S12       30.01R
$$

MTZ009-010-012-014-046-048-049-054-250200-
EAST SLOPES AND CENTRAL MONTANA

CITY           SKY/WX    TMP DP  RH WIND       PRES   REMARKS
CUT BANK       SUNNY     80  37  21 NE10      29.90S
GREAT FALLS    SUNNY     86  44  23 NE12      29.86S
HELENA         MOSUNNY   91  36  14 W17G23    29.85S
CHOTEAU          N/A     82  41  23 NE12      29.90R
CONRAD           N/A     82  46  28 N3        29.93S
$$

MTZ011-013-016-021-045-047-050-051-250200-
NORTH CENTRAL MONTANA

CITY           SKY/WX    TMP DP  RH WIND       PRES   REMARKS
HAVRE          SUNNY     83  39  21 N13       29.86R
LEWISTOWN      MOSUNNY   81  46  29 E13       29.90S
N BAR RANCH      N/A     79  45  29 E10       29.96S
CHINOOK          N/A     82  41  23 NW9       29.85R
$$

MTZ017>020-022>027-061-062-250200-
NORTHEAST MONTANA

CITY           SKY/WX    TMP DP  RH WIND       PRES   REMARKS
GLASGOW        MOSUNNY   85  41  21 VRB3      29.83F
JORDAN           N/A     85  44  23 VRB5      29.84F
SIDNEY         MOSUNNY   89  52  28 NW10      29.79S
WOLF POINT     PTSUNNY   89  43  20 NW9       29.82R
MALTA          SUNNY     84  43  23 N6G13     29.82S
PLENTYWOOD       N/A     82  45  26 CALM      29.85R
POPLAR           N/A     86  45  23 N13       29.82R
SCOBEY           N/A     81  43  26 N8        29.86S
$$

MTZ028>42-056>058-250200-
SOUTHCENTRAL AND SOUTHEAST MONTANA

CITY           SKY/WX    TMP DP  RH WIND       PRES   REMARKS
BAKER          SUNNY     93  47  20 N15       29.83S
BILLINGS       MOSUNNY   89  45  21 NE8       29.87R
LIVINGSTON     CLOUDY    83  40  21 SW32G41   29.92S
MILES CITY     SUNNY     91  44  19 N8        29.82F
BIG TIMBER     SUNNY     88  36  15 NW12      29.92F
EKALAKA          N/A     89  45  21 NW10      29.87R
FORSYTH          N/A     88  46  23 NE5       29.83R
LAUREL           N/A     86  47  25 CALM      29.88R
$$

REGIONAL REPORTS...DAKOTAS

CITY           SKY/WX    TMP DP  RH WIND       PRES   REMARKS
WILLISTON      MOSUNNY   87  50  27 N13       29.79R
MINOT          MOSUNNY   92  62  36 S16       29.74R HX  92
DICKINSON      PTSUNNY   89  66  46 VRB5      29.76R HX  91
BEACH            N/A     88  50  27 N15       29.86R
CROSBY           N/A     82  48  30 NW13      29.81S
TIOGA            N/A     81  50  34 N15       29.82R
WATFORD CITY     N/A     86  54  32 N12       29.78R
BISMARCK       SUNNY     83  67  58 S15       29.80S
GRAND FORKS    MOSUNNY   77  66  68 S12       29.85S
FARGO          CLOUDY    77  63  61 S14G21    29.88S
BUFFALO SD       N/A     94  51  23 N8        29.75R HX  91
RAPID CITY     SUNNY     95  48  20 E7        29.83R HX  91
$$

REGIONAL REPORTS...WYOMING/IDAHO/WASHINGTON

CITY           SKY/WX    TMP DP  RH WIND       PRES   REMARKS
GILLETTE       SUNNY     95  36  12 NE9       29.88F HX  90
SHERIDAN       SUNNY     92  47  21 NE10      29.88S
BUFFALO WY     SUNNY     88  41  19 NW10      29.96S
CODY           MOSUNNY   84  41  21 N14       29.98R
YELLOWSTONE LA   N/A     61  44  53 CALM      30.30F
IDAHO FALLS    PTSUNNY   84  48  28 NE10      29.99R
BOISE          PTSUNNY   93  49  22 NW14      29.82R HX  90
SPOKANE        MOSUNNY   85  29  13 SW3       29.91F
$$

REGIONAL REPORTS...ALBERTA

CITY           SKY/WX    TMP DP  RH WIND       PRES   REMARKS
EDMONTON       MOSUNNY   57  54  88 W12G21    29.92S
CALGARY        MOSUNNY   66  43  42 N20G25    30.01R
LETHBRIDGE     PTSUNNY   73  39  29 NE12G17   29.92R
MEDICINE HAT   MOSUNNY   75  36  23 NW17      29.90R
WATERTON GATE    N/A     72  43  35 E3          N/A
CARDSTON         N/A     73  41  31 NE6         N/A
MILK RIVER       N/A     73  43  33 NE8         N/A
ONEFOUR          N/A     75  34  22 N17         N/A
$$

REGIONAL REPORTS...SASKATCHEWAN

CITY           SKY/WX    TMP DP  RH WIND       PRES   REMARKS
SWIFT CURRENT  SUNNY     72  36  26 W22G28    29.87R
REGINA         MOSUNNY   75  41  29 W16G24    29.82R
SASKATOON      PTSUNNY   63  46  55 W26G43    29.74R
CYPRESS HILLS    N/A     64  32  29 NW8G17      N/A
VAL MARIE        N/A     77  39  25 N9          N/A
ROCKGLEN         N/A     75  39  27 NW8         N/A
ASSINIBOIA       N/A     55  54  94 NW26G35     N/A
$$




USA.gov is the U.S. government's official web portal to all federal, state and local government web resources and services.